Regional Weather Roundup
Issued by NWS

Home | Current Version | Previous Version | Graphics & Text | Print | Product List | Glossary On
Versions: 1 2 3 4 5 6 7 8 9 10 11 12 13 14 15 16 17 18 19 20 21 22 23 24 25 26 27 28 29 30 31 32 33 34 35 36 37 38 39 40 41 42 43 44 45 46 47 48 49 50
926
ASUS43 KMKX 251911
RWRWI

WISCONSIN REGIONAL WEATHER ROUNDUP
NATIONAL WEATHER SERVICE MILWAUKEE/SULLIVAN WI
200 PM CDT TUE APR 25 2017

NOTE: "FAIR" INDICATES FEW OR NO CLOUDS BELOW 12,000 FEET WITH NO
SIGNIFICANT WEATHER AND/OR OBSTRUCTIONS TO VISIBILITY.

WIZ001-002-006>008-014>016-023>028-252000-
NORTHWEST WISCONSIN

CITY           SKY/WX    TMP DP  RH WIND       PRES   REMARKS
SUPERIOR ARPT  CLOUDY    44  39  81 NE8       29.63S
ASHLAND        CLOUDY    52  39  61 NE9       29.61F
HAYWARD        CLOUDY    66  41  40 N9        29.56S
SIREN          PTSUNNY   64  44  47 CALM      29.54F
CUMBERLAND     CLOUDY    68  37  32 CALM      29.53F
RICE LAKE      CLOUDY    71  39  31 S5        29.54F
CHETEK         CLOUDY    71  44  38 S7G16     29.53F
LADYSMITH      CLOUDY    72  42  33 S8        29.56S
EAU CLAIRE     CLOUDY    72  42  34 S9        29.51F
MENOMONIE      CLOUDY    72  42  34 SE7       29.52F
NEW RICHMOND   CLOUDY    65  39  37 CALM      29.53F
OSCEOLA        CLOUDY    67  42  40 SE3       29.55F
$$

WIZ003>005-009-010-017-018-252000-
NORTH CENTRAL WISCONSIN

CITY           SKY/WX    TMP DP  RH WIND       PRES   REMARKS
MANITOWISH WTR CLOUDY    72  38  29 S10       29.57F
ARBOR VITAE    MOSUNNY   74  36  24 S13       29.57S
WOODRUFF       MOSUNNY   74  36  24 S13       29.57S
RHINELANDER    MOSUNNY   75  37  25 S10G24    29.58F
EAGLE RIVER    MOSUNNY   73  31  22 SE9G17    29.58F
LAND O LAKES   MOSUNNY   74  31  20 S10G17    29.60F
PHILLIPS       PTSUNNY   72  40  31 SW10      29.54F
TOMAHAWK       MOSUNNY   73  39  29 S6        29.58S
MEDFORD        CLOUDY    68  43  40 SE8       29.57S
MERRILL        MOSUNNY   73  41  32 SE9       29.58F
$$

WIZ029-030-035-036-043>047-252000-
CENTRAL WISCONSIN

CITY           SKY/WX    TMP DP  RH WIND       PRES   REMARKS
WAUSAU         MOSUNNY   73  40  30 SE10      29.55F
MOSINEE        NOT AVBL
MARSHFIELD     CLOUDY    73  39  29 S9        29.55F
STEVENS POINT  PTSUNNY   72  39  30 S12G17    29.58F
WAUPACA        CLOUDY    76  41  28 SE12G18   29.59F
WAUTOMA        PTSUNNY   76  42  29 S14G21      N/A
WISC RAPIDS    PTSUNNY   76  40  27 S14G20    29.57F
CAMP DOUGLAS   CLOUDY    75  43  31 S13       29.55F
$$

WIZ011>013-019>022-031-037>040-048>050-252000-
NORTHEAST WISCONSIN

CITY           SKY/WX    TMP DP  RH WIND       PRES   REMARKS
ANTIGO         CLOUDY    69  44  41 SE13      29.60F
SHAWANO        MOSUNNY   75  45  34 S8G16     29.61F
OCONTO         MOSUNNY   66  49  54 E9G16     29.63F
STURGEON BAY   MOSUNNY   60  51  72 S21G26    29.66F
GREEN BAY      CLOUDY    72  53  51 SE15      29.62F
MANITOWOC      CLOUDY    55  47  74 SE14      29.67F
APPLETON       MOSUNNY   73  41  31 SE14      29.60F
CLINTONVILLE   MOSUNNY   72  45  37 SE12      29.60F
OSHKOSH        MOSUNNY   74  45  35 S18       29.60F
$$

WIZ032>034-041-042-053>061-252000-
SOUTHWEST WISCONSIN

CITY           SKY/WX    TMP DP  RH WIND       PRES   REMARKS
LA CROSSE      LGT RAIN  69  47  45 S9        29.54S
SPARTA         PTSUNNY   72  42  34 S9        29.55F
VIROQUA        CLOUDY    68  42  38 S10       29.56F
BOSCOBEL       CLOUDY    74  43  32 CALM      29.54F
PRAIRIE DU CHI LGT RAIN  68  44  41 E7        29.52F
PLATTEVILLE    CLOUDY    65  51  59 E9        29.55F
$$

WIZ056-057-062-063-064-067-068-252000-
SOUTH CENTRAL WISCONSIN

CITY           SKY/WX    TMP DP  RH WIND       PRES   REMARKS
REEDSBURG      PTSUNNY   73  45  36 S9G17     29.56F
BARABOO/DELLS  PTSUNNY   72  42  33 SE14G20   29.57F
LONE ROCK      CLOUDY    72  46  39 SE13      29.56F
MINERAL POINT  CLOUDY    68  43  40 SE8       29.57F
MADISON        CLOUDY    72  41  32 S18       29.58F
MIDDLETON      CLOUDY    74  39  28 S16G24    29.59F
WATERTOWN      MOSUNNY   73  46  36 S12       29.61F
MONROE         CLOUDY    70  39  32 S18       29.59F
JANESVILLE     CLOUDY    75  41  29 S17G23    29.60F
$$

WIZ051-052-058>065-066-070>072-252000-
SOUTHEAST WISCONSIN

CITY           SKY/WX    TMP DP  RH WIND       PRES   REMARKS
MILWAUKEE      PTSUNNY   68  52  56 SE14      29.65S
WAUKESHA       SUNNY     72  45  37 S12       29.64S
MILWAUKEE/TIMM SUNNY     70  46  43 E9        29.64F
RACINE         CLOUDY    64  49  57 S17       29.67F
KENOSHA        MOSUNNY   69  51  52 SE14      29.65F
FOND DU LAC    MOSUNNY   74  42  31 S18       29.61S
SHEBOYGAN      MOSUNNY   62  53  72 SE12      29.66F
WEST BEND      MOSUNNY   70  50  49 E12       29.64S
JUNEAU         CLOUDY    72  44  36 SE16      29.62F
$$

LSZ147-162-252000-
LAKE SUPERIOR

STATION/POSITION TIME  TEMP    WIND        PRES    WAVE
                       AIR SEA DIR/SP/G            HT/PER
                 (UTC) (F)     (DEG/KT/KT) (MB)    (FT/S)
DEVILS ISLAND    1900   38      30/ 16/ 19 1004.2S
SAXON HARBOR     1830   42     320/  6/  7 1002.7R
$$

LMZ867-665-643>646-252000-
LAKE MICHIGAN

STATION/POSITION TIME  TEMP    WIND        PRES    WAVE
                       AIR SEA DIR/SP/G            HT/PER
                 (UTC) (F)     (DEG/KT/KT) (MB)    (FT/S)
CHAMBERS ISLAND  1840   62     130/ 10/ 16 1004.1F
N MID LAKE BUOY  1850   40 37   70/  6/  8 1007.3F   1/ 4
NORTHPORT PIER   1840   45     130/ 11/ 17 1005.8S
SISTER BAY       1806   61     180/ 26/ 30   N/A
KEWAUNEE LAKESHO 1848   47     140/  5/  7 1004.8F
SHEBOYGAN LAKESH 1900   44     150/  7/  7 1004.8F
PORT WASHINGTON  1840   51     130/  4/  6 1005.8F
MILWAUKEE LAKESH 1850   49     140/ 13/ 15   N/A
S MID LAKE BUOY  1750   47 41  120/ 10/ 10 1006.2F   1/ 3
KENOSHA   LAKESH 1900   55     170/ 11/ 16 1004.4
$$

TC  - TEMPERATURE IN CELSIUS
VSB - VISIBILITY IN STATUTE MILES
WCI - WIND CHILL INDEX
HX  - HEAT INDEX





USA.gov is the U.S. government's official web portal to all federal, state and local government web resources and services.